Погода в Мугалжаре

Погода в Мугалжаре : погода сейчас, прогноз погоды и архив. Всё, что Вы хотите узнать о погоде в Мугалжаре!

Хотите узнать прогноз погоды в Мугалжаре? Тогда Вам сюда: Погода в Мугалжаре

Поиск расширенной информации на нашем сайте:

Другие новости

Новости СМИ2

Главная страница сайта

Новости сайта

03.07.2017

Напоминаем, что на нашем специализированном сайте Метеоцентр.Азия вы можете получить высокодетализированные автоматические прогнозы погоды по пунктам России, СНГ и мира в авиационном формате (включающие направление и скорость ветра, видимость, явления погоды, количество и форму облачности, нижнюю и верхнюю границу облачности).

Рекомендуем: отзывы кровмаркет

Погода в Мугалжаре - сегодня

Время (UTC), дата Ветер
(°,м/с) 
Видим.   Явления Облачность Т
(°С)
Тd
(°С)
f(%) Тe
(°С)
Pmin
(гПа)
dP
(гПа)
Po
(мм)
O2
(г/м3)
Тmin Tmax R s Состояние
почвы
21 23.05.18 110 (В) 20000 м    ясно 
+18 +3.4 38 +18  1026.8  -0.5  735  277           
00 24.05.18 160 (Ю) 20000 м    ясно 
+16.2 +3.4 42 +16  1027.1  735  279           
03 24.05.18 160 (Ю) 20000 м    ясно 
+19.7 +3.8 35 +20  1027.1  0.6  736  276           
06 24.05.18 200 (Ю) 20000 м    ясно 
+24.6 +6.2 31 +25  1025.5  -0.8  735  271  +15.7         
09 24.05.18 200 (Ю) 20000 м    ясно 
+27 +5.3 25 +27  1023.2  -1.9  734  268           
12 24.05.18 200 (Ю) 20000 м    ясно 
+29 +4.5 21 +29  1021.1  -1.7  732  266           
15 24.05.18 200 (Ю) 20000 м    ясно 
+27 +7.1 28 +27  1019.7  -1.6  731  267    +29.5       
18 24.05.18 200 (Ю) 20000 м    ясно 
+22.9 +6.2 34 +23  1019.7  -0.6  731  271    +29.5       
21 24.05.18 200 (Ю) 20000 м    ясно 
+19.7 +5.8 40 +20  1019.1  -1.1  730  273           
00 25.05.18 200 (Ю) 20000 м    ясно 
+17 +4.3 43 +17  1019  -0.6  729  276           
03 25.05.18 200 (Ю) 20000 м    ясно 
+19.2 +5 39 +20  1018.3  -0.2  729  274           
06 25.05.18 230 (ЮЗ) 20000 м    ясно 
+24.4 +1.3 22 +24  1015.9  -1.6  728  269  +16.5         
09 25.05.18 230 (ЮЗ) 20000 м    ясно 
+27 -1.9 15 +27  1013.9  -1.5  727  267           
12 25.05.18 230 (ЮЗ) 20000 м    ясно 
+29.8 +0.2 15 +30  1011.5  -1.9  725  263           
15 25.05.18 230 (ЮЗ) 20000 м    ясно 
+28.4 +7.4 27 +28  1010.1  -1.6  724  263    +30.3       
18 25.05.18 тихо ()   20000 м    ясно 
+23.8 +6.1 32 +24  1009.1  -1.5  723  267    +30.3       
21 25.05.18 110 (В) 20000 м    ясно 
+19.8 +6.2 41 +20  1007.5  -2.1  722  270           
00 26.05.18 110 (В) 20000 м    ясно 
+17.2 +4.8 44 +17  1006.1  -1.8  720  272           
03 26.05.18 200 (Ю) 20000 м    9/0 верхняя 
[Ci ing]
+19.6 +5.6 40 +21  1003.9  -1.6  719  269           
06 26.05.18 200 (Ю) 20000 м    9/0 средняя 
[Ac trans]
+24.1 +5.1 29 +24  1002.3  -1  718  265  +16.7         
09 26.05.18 020 (С) 20000 м    10/10 600 м кучево-дожд. 
[Cb cap]
+22.4 +5.8 34 +22  1003.4  0.8  719  267           
12 26.05.18 020 (С) 20000 м    10/10 600 м кучево-дожд. 
[Cb cap]
+11.2 +1.5 51 +9  1009.1  3.7  722  279           
15 26.05.18 020 (С) 20000 м    10/10 600 м кучево-дожд. 
[Cb cap]
+6 -0.9 61 +3  1012.5  2.5  724  285    +24.5       
18 26.05.18 020 (С) 20000 м    10/10 600 м кучево-дожд. 
[Cb cap]
+4 -1.9 65 1014.3  1.3  725  288    +24.5       
21 26.05.18 020 (С) 20000 м    10/10 600 м кучево-дожд. 
[Cb cap]
+2.6 -1.8 73 -1  1014.7  0.2  725  289           
Время (UTC), дата Ветер
(°,м/с) 
Видим.   Явления Облачность Т
(°С)
Тd
(°С)
f(%) Тe
(°С)
Pmin
(гПа)
dP
(гПа)
Po
(мм)
O2
(г/м3)
Тmin Tmax R s Состояние
почвы

Для получения пояснительной информации подведите курсор к названию столбца.

ПОГОДА в Мугалжаре - архив

Всё, что Вы хотите узнать о погоде в Мугалжаре - удобно и подробно!

Выберите нужную дату (начиная с 1 января 2015* года) и нажмите кнопку "Найти".
Будут отображены архивные сводки погоды по пункту Мугалжар, начиная с указанной даты.


Отображать данные в формате CSV (для использования в таблицах Excel)


Внимание! Наш архив погоды предназначен исключительно для личного некоммерческого использования в познавательных целях. Если Вам необходимы официальные справки о состоянии погоды (для производственных, юридических, коммерческих и т.п. целей), обращайтесь в органы Росгидромета.

*Примечание: данная дата относится к архиву по метеостанциям СССР (Россия, СНГ, Балтия).
Архив по метеостанциям Зарубежной Европы и Азии (кроме Китая) хранится 10 дней, по другим регионам земного шара (Китай, Африка, Америка, Австралия, Океания) - 1 день.

Мугалжар - район местоположения метеостанции


Название, широта, долгота, высота метеостанции:
Мугалжар (Мугоджарская) 48.6°ш. 58.5°д. 398 м над ур. моря [Казахстан]

Дополнительная информация

В oтличие oт бoльшинства пoгoдных сайтoв мы публикуем пoдрoбную метеoинфoрмацию в детальнoм прoфессиoнальнoм фoрмате.

Характеристики температуры и влажнoсти вoздуха измеряются на высoте 2 м в тени вдали oт зданий и деревьев.
Скoрoсть ветра измеряется на высoте 10 м (на урoвне рoста челoвека скoрoсть ветра ниже в 1.5-2 раза). Если метеoстанция нахoдится в гoрoде или в лесу, тo скoрoсть ветра занижена на 2-4 м/с пo сравнению с oткрытым местoм. Скoрoсть ветра над акватoриями крупных рек и oзёр, а также на вершинах хoлмoв на 2-5 м/с выше, чем в oбычных услoвиях.
Атмoсфернoе давление в разных тoчках местнoсти мoжет значительнo oтличаться oт давления на метеoстанции, в зависимoсти oт услoвий рельефа (при пoдъёме на 10 м давление пoнижается примернo на 1 мм рт.ст.).